TimePDT,TemperatureF,Dew PointF,Humidity,Sea Level PressureIn,VisibilityMPH,Wind Direction,Wind SpeedMPH,Gust SpeedMPH,PrecipitationIn,Events,Conditions,WindDirDegrees,DateUTC
12:53 AM,55.9,51.1,84,30.00,10.0,NW,4.6,-,N/A,,Clear,310,2012-10-07 07:53:00
1:53 AM,54.0,48.0,80,30.00,10.0,Calm,Calm,-,N/A,,Clear,0,2012-10-07 08:53:00
2:53 AM,53.1,48.0,83,30.00,10.0,Calm,Calm,-,N/A,,Clear,0,2012-10-07 09:53:00
3:53 AM,52.0,48.0,86,30.00,10.0,Calm,Calm,-,N/A,,Clear,0,2012-10-07 10:53:00
4:53 AM,51.1,48.0,89,29.99,10.0,Calm,Calm,-,N/A,,Clear,0,2012-10-07 11:53:00
5:53 AM,50.0,46.9,89,29.99,10.0,SE,3.5,-,N/A,,Clear,130,2012-10-07 12:53:00
6:53 AM,48.9,48.0,97,30.01,10.0,Calm,Calm,-,N/A,,Clear,0,2012-10-07 13:53:00
7:53 AM,50.0,48.9,96,30.02,10.0,Calm,Calm,-,N/A,,Clear,0,2012-10-07 14:53:00
8:53 AM,54.0,48.9,83,30.03,10.0,Calm,Calm,-,N/A,,Clear,0,2012-10-07 15:53:00
9:53 AM,60.8,50.0,68,30.03,10.0,Calm,Calm,-,N/A,,Clear,0,2012-10-07 16:53:00
10:53 AM,63.0,50.0,63,30.01,10.0,Calm,Calm,-,N/A,,Clear,0,2012-10-07 17:53:00
11:53 AM,66.9,48.9,52,30.00,10.0,Variable,4.6,-,N/A,,Clear,0,2012-10-07 18:53:00
12:53 PM,69.1,46.0,44,29.98,10.0,NW,10.4,-,N/A,,Clear,310,2012-10-07 19:53:00
1:53 PM,71.1,45.0,39,29.96,10.0,NNW,10.4,-,N/A,,Clear,330,2012-10-07 20:53:00
2:53 PM,73.0,48.9,42,29.95,10.0,NW,13.8,-,N/A,,Clear,310,2012-10-07 21:53:00
3:53 PM,72.0,48.0,43,29.94,10.0,WNW,13.8,-,N/A,,Clear,300,2012-10-07 22:53:00
4:53 PM,70.0,48.9,47,29.94,10.0,NW,13.8,-,N/A,,Clear,320,2012-10-07 23:53:00
5:53 PM,64.9,50.0,58,29.95,10.0,NW,15.0,-,N/A,,Clear,320,2012-10-08 00:53:00
6:53 PM,63.0,51.1,65,29.96,10.0,NW,11.5,-,N/A,,Clear,320,2012-10-08 01:53:00
7:53 PM,62.1,51.1,67,29.98,10.0,NW,10.4,-,N/A,,Clear,320,2012-10-08 02:53:00
8:53 PM,60.1,51.1,72,30.00,10.0,NNW,9.2,-,N/A,,Clear,330,2012-10-08 03:53:00
9:53 PM,59.0,52.0,78,30.00,10.0,NW,5.8,-,N/A,,Clear,310,2012-10-08 04:53:00
10:53 PM,59.0,52.0,78,30.01,10.0,NNW,4.6,-,N/A,,Clear,340,2012-10-08 05:53:00
11:53 PM,57.0,51.1,81,30.02,10.0,Calm,Calm,-,N/A,,Clear,0,2012-10-08 06:53:00